Karlovy Vary, Czech Republic

5:59 PM CEST on April 24, 2017 (GMT +0200)
Karlovy Vary

Weather History for LKKV - March, 2014

Change the Weather History Date:

Thursday, March 6, 2014

  Actual Average (EDQM) Record (EDQM)
Temperature  
Mean Temperature 34 °F -  
Max Temperature 44 °F 38 °F 53 °F (2007)
Min Temperature 24 °F 28 °F 19 °F (2001)
Degree Days  
Heating Degree Days 31    
Moisture  
Dew Point 30 °F    
Average Humidity 79    
Maximum Humidity 100    
Minimum Humidity 46    
Precipitation  
Precipitation 0.00 in - - ()
Sea Level Pressure  
Sea Level Pressure 30.33 in    
Wind  
Wind Speed 3 mph ()    
Max Wind Speed 9 mph    
Max Gust Speed -    
Visibility 4.0 miles    
Events Fog    
Averages and records for this station are not official NWS values.
T = Trace of Precipitation, MM = Missing Value Source: Averaged Metar Reports

Daily Weather History Graph

Daily Weather History Graph

Search for Another Location

Airport or City:

Trip Planner

Search our weather history database for the weather conditions in past years. The results will help you decide how hot, cold, wet, or windy it might be!

Date:

Astronomy

Mar. 06, 2014 Rise Set
Actual Time 6:41 AM CET 5:58 PM CET
Civil Twilight 6:09 AM CET 6:30 PM CET
Nautical Twilight 5:31 AM CET 7:08 PM CET
Astronomical Twilight 4:54 AM CET 7:46 PM CET
Moon 9:04 AM CET (3/6) No Moon Set
Length of Visible Light 12h 21m
Length of Day
11h 16m
Waxing Crescent, 30% of the Moon is Illuminated
Mar 6
Waxing Crescent
Mar 8
First Quarter
Mar 16
Full
Mar 24
Last Quarter
Mar 30
New

Hourly Weather History & Observations

Time (CET) Temp. Windchill Dew Point Humidity Pressure Visibility Wind Dir Wind Speed Gust Speed Precip Events Conditions
12:00 AM 29 °F - 27 °F 87%  in 4 mi South 2.2 mph - -   Mist
12:00 AM 28.4 °F 23.3 °F 26.6 °F 93% 30.21 in 3.7 mi East 4.6 mph - N/A   Unknown
1:00 AM 28 °F - 27 °F 93%  in 3 mi WSW 2.2 mph - -   Mist
1:00 AM 28.4 °F - 26.6 °F 93% 30.21 in 3.1 mi Calm Calm - N/A   Mist
2:00 AM 27 °F - 26 °F 92%  in 3 mi NW 4.5 mph - -   Mist
2:00 AM 28.4 °F - 28.4 °F 100% 30.21 in 3.1 mi Variable 2.3 mph - N/A   Mist
3:00 AM 28 °F - 27 °F 92%  in 3 mi SSW 2.2 mph - -   Mist
3:00 AM 28.4 °F - 26.6 °F 93% 30.24 in 3.1 mi East 2.3 mph - N/A   Mist
4:00 AM 27 °F - 25 °F 91%  in 3 mi South 2.2 mph - -   Mist
4:00 AM 26.6 °F 22.6 °F 26.6 °F 100% 30.24 in 2.8 mi East 3.5 mph - N/A   Mist
5:00 AM 26 °F - 26 °F 97%  in 2 mi SSE 2.2 mph - -   Mist
5:00 AM 26.6 °F 22.6 °F 26.6 °F 100% 30.27 in 1.9 mi ESE 3.5 mph - N/A Fog Mist
6:00 AM 26 °F - 24 °F 90%  in 2 mi SSE 2.2 mph - -   Mist
6:00 AM 26.6 °F 21.2 °F 24.8 °F 93% 30.30 in 1.6 mi ESE 4.6 mph - N/A   Mist
7:00 AM 27 °F - 26 °F 94%  in 1 mi ESE 2.2 mph - -   Mist
7:00 AM 26.6 °F - 26.6 °F 100% 30.30 in 0.9 mi Variable 2.3 mph - N/A Fog Mist
7:30 AM 28.4 °F - 28.4 °F 100% 30.30 in 1.2 mi Variable 1.2 mph - N/A Fog Partly Cloudy
8:00 AM 30 °F - 29 °F 95%  in 1 mi North 2.2 mph - - Fog Patches of Fog
8:00 AM 30.2 °F - 30.2 °F 100% 30.33 in 1.9 mi Calm Calm - N/A Fog Mist
8:30 AM 32.0 °F - 32.0 °F 100% 30.33 in 2.2 mi Calm Calm - N/A Fog Scattered Clouds
9:00 AM 37 °F - 34 °F 85%  in 2 mi NNE 4.5 mph - - Fog Patches of Fog
9:00 AM 37.4 °F 34.9 °F 33.8 °F 87% 30.36 in 2.5 mi NNW 3.5 mph - N/A Fog Partly Cloudy
9:30 AM 39.2 °F 35.9 °F 33.8 °F 81% 30.36 in 2.5 mi North 4.6 mph - N/A   Partly Cloudy
10:00 AM 40 °F - 33 °F 69%  in 3 mi NE 6.7 mph - -   Mist
10:00 AM 41.0 °F 38.0 °F 33.8 °F 76% 30.36 in 3.1 mi NE 4.6 mph - N/A   Partly Cloudy
10:30 AM 41.0 °F 36.4 °F 33.8 °F 76% 30.36 in 3.7 mi NE 6.9 mph - N/A   Partly Cloudy
11:00 AM 42 °F - 33 °F 60%  in 4 mi NE 8.9 mph - -   Mist
11:00 AM 42.8 °F 37.5 °F 33.8 °F 70% 30.36 in 4.3 mi NE 9.2 mph - N/A   Partly Cloudy
11:30 AM 42.8 °F 38.0 °F 33.8 °F 70% 30.36 in 4.3 mi North 8.1 mph - N/A   Partly Cloudy
12:00 PM 42 °F - 32 °F 57%  in 5 mi North 6.7 mph - -   Haze
12:00 PM 42.8 °F 39.3 °F 32.0 °F 66% 30.36 in 5.0 mi North 5.8 mph - N/A   Scattered Clouds
12:30 PM 42.8 °F 40.1 °F 32.0 °F 66% 30.36 in 5.0 mi NNE 4.6 mph - N/A   Scattered Clouds
1:00 PM 43 °F - 31 °F 51%  in 6 mi NW 6.7 mph - -   Mostly Cloudy
1:00 PM 42.8 °F 41.1 °F 32.0 °F 66% 30.36 in 6.2 mi West 3.5 mph - N/A   Mostly Cloudy
1:30 PM 42.8 °F 39.3 °F 30.2 °F 61% 30.36 in 6.2 mi NW 5.8 mph - N/A   Mostly Cloudy
2:00 PM 44 °F - 31 °F 47%  in 6 mi NW 2.2 mph - -   Mostly Cloudy
2:00 PM 42.8 °F - 30.2 °F 61% 30.36 in 6.2 mi Variable 2.3 mph - N/A   Mostly Cloudy
2:30 PM 44.6 °F 43.1 °F 30.2 °F 57% 30.36 in 6.2 mi WNW 3.5 mph - N/A   Mostly Cloudy
3:00 PM 44 °F - 30 °F 46%  in 9 mi North 4.5 mph - -   Mostly Cloudy
3:00 PM 44.6 °F 42.2 °F 30.2 °F 57% 30.36 in 6.2 mi North 4.6 mph - N/A   Mostly Cloudy
3:30 PM 44.6 °F 41.4 °F 30.2 °F 57% 30.36 in 6.2 mi NE 5.8 mph - N/A   Mostly Cloudy
4:00 PM 44 °F - 31 °F 48%  in 9 mi North 2.2 mph - -   Mostly Cloudy
4:00 PM 44.6 °F 42.2 °F 30.2 °F 57% 30.36 in 6.2 mi NNE 4.6 mph - N/A   Mostly Cloudy
4:30 PM 44.6 °F 43.1 °F 32.0 °F 61% 30.36 in 6.2 mi NNW 3.5 mph - N/A   Mostly Cloudy
5:00 PM 43 °F - 31 °F 52%  in 7 mi ENE 4.5 mph - -   Mostly Cloudy
5:00 PM 42.8 °F 39.3 °F 32.0 °F 66% 30.36 in 6.2 mi East 5.8 mph - N/A   Mostly Cloudy
5:30 PM 42.8 °F 41.1 °F 33.8 °F 70% 30.36 in 6.2 mi ESE 3.5 mph - N/A   Mostly Cloudy
6:00 PM 41 °F - 33 °F 62%  in 6 mi East 4.5 mph - -   Mostly Cloudy
6:00 PM 41.0 °F 39.0 °F 32.0 °F 70% 30.36 in 6.2 mi East 3.5 mph - N/A   Mostly Cloudy
6:30 PM 39.2 °F - 33.8 °F 81% 30.36 in 4.3 mi Variable 2.3 mph - N/A   Mostly Cloudy
7:00 PM 37 °F - 31 °F 72%  in 4 mi SE 4.5 mph - -   Mist
7:00 PM 37.4 °F 34.9 °F 32.0 °F 81% 30.36 in 4.3 mi SE 3.5 mph - N/A   Mostly Cloudy
7:30 PM 35.6 °F - 32.0 °F 87% 30.36 in 4.3 mi East 2.3 mph - N/A   Partly Cloudy
8:00 PM 35 °F - 33 °F 87%  in 4 mi ESE 4.5 mph - -   Mist
8:00 PM 33.8 °F - 32.0 °F 93% 30.36 in 3.7 mi East 2.3 mph - N/A   Unknown
9:00 PM 31 °F - 29 °F 90%  in 3 mi SSE 2.2 mph - -   Mist
9:00 PM 30.2 °F 26.7 °F 28.4 °F 93% 30.36 in 3.1 mi ESE 3.5 mph - N/A   Mist
10:00 PM 33 °F - 30 °F 84%  in 4 mi East 2.2 mph - -   Mist
10:00 PM 33.8 °F - 30.2 °F 87% 30.36 in 3.7 mi Variable 1.2 mph - N/A   Unknown
11:00 PM 29 °F - 27 °F 91%  in 2 mi West 2.2 mph - -   Mist
11:00 PM 28.4 °F - 28.4 °F 100% 30.36 in 1.9 mi Variable 2.3 mph - N/A   Mist